Hourly Data Report for November 02, 2019

All times are specified in Local Standard Time (LST). Add 1 hour to adjust for Daylight Saving Time where and when it is observed.

EUREKA CLIMATE
NUNAVUT
Current Station Operator: ECCC - MSC

79°59'21.000" N
85°56'02.000" W
10.00 m
2401199
71613
NEK

Download Data

Hourly Data (November 2019)
Hourly Data Report for November 2, 2019
TIME Temp Definition
°C
Dew Point Definition
°C
Rel Hum Definition
%
Wind Dir Definition
10's deg

Wind Spd Definition
km/h
Visibility Definition
km
Stn Press Definition
kPa
Hmdx Definition


Wind Chill Definition


Weather Definition


00:00 -15.8 -19.5 73 36 24   101.20   -26 LegendNANA
01:00 -14.3 -18.8 68 35 24   101.20   -24 LegendNANA
02:00 -15.5 -18.9 75 36 16   101.25   -24 LegendNANA
03:00 -15.9 -19.6 73 34 9   101.27   -22 LegendNANA
04:00 -16.3 -19.4 77 29 4   101.27   -19 LegendNANA
05:00 -19.1 -22.3 76 30 10   101.29   -26 LegendNANA
06:00 -19.6 -22.2 79 31 14   101.32   -28 LegendNANA
07:00 -20.9 -23.4 80 30 13   101.28   -30 LegendNANA
08:00 -18.6 -22.0 74 33 13   101.28   -27 LegendNANA
09:00 -19.6 -22.5 77 31 14   101.28   -28 LegendNANA
10:00 -19.7 -22.6 78 31 12   101.26   -28 LegendNANA
11:00 -19.4 -22.8 74 30 15   101.25   -28 LegendNANA
12:00 -19.7 -23.6 71 35 9   101.29   -26 LegendNANA
13:00 -21.4 -24.1 79 30 14   101.31   -30 LegendNANA
14:00 -21.6 -24.2 79 32 15   101.29   -31 LegendNANA
15:00 -22.4 -25.6 75 33 9   101.29   -30 LegendNANA
16:00 -20.5 -23.6 77 34 16   101.30   -30 LegendNANA
17:00 -20.2 -23.8 73 31 10   101.30   -27 LegendNANA
18:00 -21.7 -24.1 81 29 16   101.28   -31 LegendNANA
19:00 -22.1 -24.9 78 35 23   101.27   -34 LegendNANA
20:00 -23.4 -26.2 77 1 13   101.28   -33 LegendNANA
21:00 -23.3 -26.1 78 2 12   101.24   -32 LegendNANA
22:00 -22.5 -25.6 76 32 13   101.22   -31 LegendNANA
23:00 -23.0 -25.8 77 31 14   101.22   -32 LegendNANA

Notes on Data Quality.

Legend

  • E = Estimated
  • M = Missing
  • NA = Not Available
Date modified: